| time (UTC) | temp C | wind direction | speed KPH | gust KPH | rain 1hr cm | rain 24hr cm | rain mn cm | humidity % | barometer mb |
| 20260905143015 | 30 | 0.0 | 1.6 | 0.00 | 0.00 | 0.00 | 71 | 1014.8 | |
| 20260905142016 | 29 | 0.0 | 1.6 | 0.00 | 0.00 | 0.00 | 72 | 1014.8 | |
| 20260905141035 | 28 | 0.0 | 1.6 | 0.00 | 0.00 | 0.00 | 75 | 1014.6 | |
| 20260905140015 | 28 | 0.0 | 1.6 | 0.00 | 0.00 | 0.00 | 76 | 1014.6 | |
| 20260905135015 | 27 | 0.0 | 1.6 | 0.00 | 0.00 | 0.00 | 79 | 1014.6 | |
| 20260905134015 | 27 | 0.0 | 8.0 | 0.00 | 0.00 | 0.00 | 81 | 1014.4 | |
| 20260905133015 | 26 | 158 | 1.6 | 9.7 | 0.00 | 0.00 | 0.00 | 84 | 1014.3 |
| 20260905132015 | 26 | 0.0 | 6.4 | 0.00 | 0.00 | 0.00 | 86 | 1014.1 | |
| 20260905131015 | 25 | 0.0 | 6.4 | 0.00 | 0.00 | 0.00 | 88 | 1014.0 | |
| 20260905130015 | 25 | 158 | 1.6 | 9.7 | 0.00 | 0.00 | 0.00 | 89 | 1013.9 |
| 20260905125016 | 25 | 0.0 | 8.0 | 0.00 | 0.00 | 0.00 | 89 | 1013.8 | |
| 20260905124015 | 24 | 0.0 | 3.2 | 0.00 | 0.00 | 0.00 | 89 | 1013.6 | |
| 20260905123035 | 24 | 0.0 | 0.0 | 0.00 | 0.00 | 0.00 | 88 | 1013.7 | |
| 20260905122016 | 24 | 0.0 | 1.6 | 0.00 | 0.00 | 0.00 | 88 | 1013.7 | |
| 20260905121015 | 24 | 0.0 | 0.0 | 0.00 | 0.00 | 0.00 | 86 | 1013.7 | |
| 20260905120055 | 25 | 0.0 | 0.0 | 0.00 | 0.00 | 0.00 | 86 | 1013.7 | |
| 20260905115015 | 25 | 0.0 | 0.0 | 0.00 | 0.00 | 0.00 | 85 | 1013.7 | |
| 20260905114015 | 25 | 0.0 | 0.0 | 0.00 | 0.00 | 0.00 | 85 | 1013.6 | |
| 20260905113015 | 25 | 0.0 | 0.0 | 0.00 | 0.00 | 0.00 | 85 | 1013.7 | |
| 20260905112015 | 25 | 0.0 | 0.0 | 0.00 | 0.00 | 0.00 | 84 | 1013.7 | |
| 20260905111016 | 25 | 0.0 | 0.0 | 0.00 | 0.00 | 0.00 | 84 | 1013.8 | |
| 20260905110015 | 25 | 0.0 | 0.0 | 0.00 | 0.00 | 0.00 | 84 | 1013.8 | |
| 20260905105015 | 25 | 0.0 | 0.0 | 0.00 | 0.00 | 0.00 | 84 | 1013.7 | |
| 20260905104016 | 25 | 0.0 | 1.6 | 0.00 | 0.00 | 0.00 | 84 | 1013.6 | |
| 20260905103015 | 25 | 0.0 | 1.6 | 0.00 | 0.00 | 0.00 | 84 | 1013.6 | |
| 20260905102015 | 26 | 0.0 | 0.0 | 0.00 | 0.00 | 0.00 | 83 | 1013.6 | |
| 20260905101015 | 26 | 0.0 | 1.6 | 0.00 | 0.00 | 0.00 | 83 | 1013.4 | |
| 20260905100035 | 26 | 158 | 3.2 | 16.1 | 0.00 | 0.00 | 0.00 | 83 | 1013.5 |
| 20260905095015 | 26 | 158 | 1.6 | 9.7 | 0.00 | 0.00 | 0.00 | 82 | 1013.4 |
| 20260905094035 | 26 | 0.0 | 4.8 | 0.00 | 0.00 | 0.00 | 82 | 1013.5 | |
| 20260905093015 | 26 | 0.0 | 9.7 | 0.00 | 0.00 | 0.00 | 82 | 1013.6 | |
| 20260905092015 | 26 | 158 | 3.2 | 9.7 | 0.00 | 0.00 | 0.00 | 82 | 1013.7 |
| 20260905091015 | 26 | 158 | 1.6 | 8.0 | 0.00 | 0.00 | 0.00 | 81 | 1013.6 |
| 20260905090055 | 26 | 0.0 | 4.8 | 0.00 | 0.00 | 0.00 | 81 | 1013.7 | |
| 20260905085016 | 26 | 158 | 1.6 | 4.8 | 0.00 | 0.00 | 0.00 | 80 | 1013.5 |
| 20260905084016 | 26 | 0.0 | 4.8 | 0.00 | 0.00 | 0.00 | 80 | 1013.4 | |
| 20260905083036 | 26 | 158 | 1.6 | 6.4 | 0.00 | 0.00 | 0.00 | 79 | 1013.3 |
| 20260905082016 | 27 | 158 | 1.6 | 9.7 | 0.00 | 0.00 | 0.00 | 79 | 1013.3 |
| 20260905081016 | 27 | 0.0 | 3.2 | 0.00 | 0.00 | 0.00 | 78 | 1013.3 | |
| 20260905080016 | 27 | 0.0 | 1.6 | 0.00 | 0.00 | 0.00 | 77 | 1013.4 | |
| 20260905075016 | 27 | 158 | 1.6 | 6.4 | 0.00 | 0.00 | 0.00 | 77 | 1013.4 |
| 20260905074016 | 27 | 0.0 | 9.7 | 0.00 | 0.00 | 0.00 | 77 | 1013.4 | |
| 20260905073016 | 27 | 158 | 4.8 | 14.5 | 0.00 | 0.00 | 0.00 | 76 | 1013.4 |
| 20260905072016 | 27 | 135 | 3.2 | 14.5 | 0.00 | 0.00 | 0.00 | 76 | 1013.6 |
| 20260905071016 | 27 | 158 | 6.4 | 17.7 | 0.00 | 0.00 | 0.00 | 75 | 1013.6 |
| 20260905070036 | 27 | 158 | 6.4 | 16.1 | 0.00 | 0.00 | 0.00 | 75 | 1013.7 |
| 20260905065016 | 27 | 135 | 6.4 | 17.7 | 0.00 | 0.00 | 0.00 | 74 | 1013.7 |
| 20260905064016 | 28 | 158 | 4.8 | 17.7 | 0.00 | 0.00 | 0.00 | 74 | 1013.8 |
| 20260905063016 | 28 | 158 | 4.8 | 12.9 | 0.00 | 0.00 | 0.00 | 73 | 1013.8 |
| 20260905062016 | 28 | 135 | 6.4 | 16.1 | 0.00 | 0.00 | 0.00 | 73 | 1013.9 |
| 20260905061016 | 28 | 158 | 4.8 | 12.9 | 0.00 | 0.00 | 0.00 | 72 | 1013.9 |
| 20260905060016 | 28 | 135 | 6.4 | 14.5 | 0.00 | 0.00 | 0.00 | 72 | 1013.9 |
| 20260905055016 | 28 | 135 | 11.3 | 19.3 | 0.00 | 0.03 | 0.00 | 71 | 1013.7 |
| 20260905054016 | 28 | 135 | 4.8 | 17.7 | 0.00 | 0.03 | 0.00 | 71 | 1013.7 |
| 20260905053036 | 28 | 135 | 8.0 | 17.7 | 0.00 | 0.03 | 0.00 | 70 | 1013.7 |
| 20260905052016 | 28 | 158 | 8.0 | 17.7 | 0.00 | 0.03 | 0.00 | 70 | 1013.5 |
| 20260905051056 | 28 | 135 | 6.4 | 16.1 | 0.00 | 0.03 | 0.00 | 70 | 1013.5 |
| 20260905050016 | 29 | 135 | 9.7 | 22.5 | 0.00 | 0.03 | 0.00 | 69 | 1013.4 |
| 20260905045016 | 29 | 135 | 9.7 | 20.9 | 0.00 | 0.03 | 0.00 | 69 | 1013.5 |
| 20260905044016 | 29 | 135 | 8.0 | 16.1 | 0.00 | 0.03 | 0.00 | 68 | 1013.4 |
| 20260905043016 | 29 | 135 | 9.7 | 19.3 | 0.00 | 0.03 | 0.00 | 67 | 1013.3 |
| 20260905042016 | 30 | 135 | 6.4 | 14.5 | 0.00 | 0.03 | 0.00 | 66 | 1013.4 |
| 20260905041116 | 30 | 135 | 6.4 | 17.7 | 0.00 | 0.03 | 0.00 | 65 | 1013.5 |
| 20260905040016 | 30 | 135 | 9.7 | 17.7 | 0.00 | 0.03 | 0.00 | 64 | 1013.5 |
| 20260905035016 | 30 | 135 | 8.0 | 17.7 | 0.00 | 0.03 | 0.00 | 63 | 1013.6 |
| 20260905034036 | 30 | 135 | 9.7 | 22.5 | 0.00 | 0.03 | 0.00 | 62 | 1013.5 |
| 20260905033016 | 30 | 135 | 9.7 | 20.9 | 0.00 | 0.03 | 0.00 | 61 | 1013.3 |
| 20260905032016 | 30 | 135 | 8.0 | 16.1 | 0.00 | 0.03 | 0.00 | 60 | 1013.4 |
| 20260905031016 | 31 | 135 | 6.4 | 17.7 | 0.00 | 0.03 | 0.00 | 59 | 1013.3 |
| 20260905030016 | 31 | 135 | 8.0 | 16.1 | 0.00 | 0.03 | 0.00 | 58 | 1013.1 |
| 20260905025016 | 31 | 135 | 6.4 | 12.9 | 0.00 | 0.03 | 0.00 | 57 | 1013.0 |
| 20260905024016 | 31 | 113 | 4.8 | 11.3 | 0.00 | 0.03 | 0.00 | 57 | 1013.0 |
| 20260905023036 | 31 | 135 | 3.2 | 8.0 | 0.00 | 0.03 | 0.00 | 56 | 1012.8 |
| 20260905022016 | 31 | 135 | 4.8 | 11.3 | 0.00 | 0.03 | 0.00 | 55 | 1012.5 |
| 20260905021016 | 32 | 113 | 4.8 | 11.3 | 0.00 | 0.03 | 0.00 | 55 | 1012.4 |
| 20260905020016 | 32 | 113 | 4.8 | 11.3 | 0.00 | 0.03 | 0.00 | 54 | 1012.3 |
| 20260905015016 | 32 | 113 | 6.4 | 14.5 | 0.00 | 0.03 | 0.00 | 53 | 1012.0 |
| 20260905014016 | 32 | 113 | 4.8 | 11.3 | 0.00 | 0.03 | 0.00 | 53 | 1011.9 |
| 20260905013016 | 32 | 113 | 6.4 | 14.5 | 0.00 | 0.03 | 0.00 | 52 | 1011.7 |
| 20260905012016 | 32 | 113 | 8.0 | 14.5 | 0.00 | 0.03 | 0.00 | 52 | 1011.6 |
| 20260905011016 | 33 | 113 | 11.3 | 20.9 | 0.00 | 0.03 | 0.00 | 51 | 1011.6 |
| 20260905010016 | 33 | 113 | 11.3 | 19.3 | 0.00 | 0.03 | 0.00 | 50 | 1011.5 |
| 20260905005016 | 33 | 113 | 4.8 | 12.9 | 0.00 | 0.03 | 0.00 | 49 | 1011.5 |
| 20260905004016 | 33 | 113 | 11.3 | 17.7 | 0.00 | 0.03 | 0.00 | 48 | 1011.3 |
| 20260905003056 | 34 | 113 | 11.3 | 19.3 | 0.00 | 0.03 | 0.00 | 48 | 1011.2 |
| 20260905002016 | 34 | 113 | 12.9 | 20.9 | 0.00 | 0.03 | 0.00 | 47 | 1011.0 |
| 20260905001016 | 35 | 113 | 14.5 | 25.7 | 0.00 | 0.03 | 0.00 | 46 | 1011.0 |
| 20260905000016 | 35 | 135 | 8.0 | 16.1 | 0.00 | 0.03 | 0.00 | 45 | 1011.0 |
| 20260904235016 | 35 | 135 | 8.0 | 16.1 | 0.00 | 0.03 | 0.00 | 44 | 1010.9 |
| 20260904234016 | 35 | 135 | 8.0 | 17.7 | 0.00 | 0.03 | 0.00 | 44 | 1011.0 |
| 20260904233036 | 35 | 113 | 12.9 | 19.3 | 0.00 | 0.03 | 0.00 | 44 | 1011.0 |
| 20260904232016 | 36 | 135 | 4.8 | 16.1 | 0.00 | 0.03 | 0.00 | 45 | 1010.9 |
| 20260904231016 | 36 | 135 | 11.3 | 17.7 | 0.00 | 0.03 | 0.00 | 44 | 1011.0 |
| 20260904230016 | 36 | 113 | 11.3 | 19.3 | 0.00 | 0.03 | 0.00 | 44 | 1011.0 |
| 20260904225016 | 36 | 135 | 12.9 | 20.9 | 0.00 | 0.03 | 0.00 | 44 | 1011.1 |
| 20260904224016 | 36 | 90 | 4.8 | 14.5 | 0.00 | 0.03 | 0.00 | 45 | 1011.1 |
| 20260904223016 | 36 | 113 | 17.7 | 30.6 | 0.00 | 0.03 | 0.00 | 44 | 1011.3 |
| 20260904222016 | 36 | 135 | 6.4 | 17.7 | 0.00 | 0.03 | 0.00 | 42 | 1011.1 |
| 20260904221016 | 36 | 135 | 6.4 | 17.7 | 0.00 | 0.03 | 0.00 | 41 | 1011.2 |
| 20260904220016 | 36 | 113 | 11.3 | 19.3 | 0.00 | 0.03 | 0.00 | 41 | 1011.2 |
| 20260904215016 | 37 | 113 | 16.1 | 22.5 | 0.00 | 0.03 | 0.00 | 41 | 1011.4 |
| 20260904214016 | 37 | 113 | 6.4 | 17.7 | 0.00 | 0.03 | 0.00 | 41 | 1011.4 |
| 20260904213056 | 36 | 113 | 11.3 | 19.3 | 0.00 | 0.03 | 0.00 | 41 | 1011.5 |
| 20260904212016 | 36 | 90 | 14.5 | 24.1 | 0.00 | 0.03 | 0.00 | 42 | 1011.6 |
| 20260904211036 | 36 | 135 | 14.5 | 20.9 | 0.00 | 0.03 | 0.00 | 42 | 1011.8 |
| 20260904210016 | 37 | 158 | 6.4 | 24.1 | 0.00 | 0.03 | 0.00 | 42 | 1012.0 |
| 20260904205036 | 37 | 135 | 3.2 | 19.3 | 0.00 | 0.03 | 0.00 | 42 | 1012.1 |
| 20260904204016 | 37 | 90 | 1.6 | 3.2 | 0.00 | 0.03 | 0.00 | 43 | 1012.1 |
| 20260904203510 | 37 | 113 | 4.8 | 16.1 | 0.00 | 0.03 | 0.00 | 44 | 1012.3 |
| 20260904202516 | 37 | 90 | 1.6 | 9.7 | 0.00 | 0.03 | 0.00 | 44 | 1012.3 |
| 20260904201516 | 36 | 113 | 3.2 | 16.1 | 0.00 | 0.03 | 0.00 | 46 | 1012.5 |
| 20260904200516 | 36 | 135 | 8.0 | 19.3 | 0.00 | 0.03 | 0.00 | 45 | 1012.8 |
| 20260904195516 | 36 | 113 | 9.7 | 22.5 | 0.00 | 0.03 | 0.00 | 45 | 1013.0 |
| 20260904194516 | 36 | 135 | 4.8 | 16.1 | 0.00 | 0.03 | 0.00 | 46 | 1013.1 |
| 20260904193536 | 36 | 113 | 14.5 | 25.7 | 0.00 | 0.03 | 0.00 | 47 | 1013.2 |
| 20260904192516 | 36 | 113 | 11.3 | 24.1 | 0.00 | 0.03 | 0.00 | 48 | 1013.4 |
| 20260904191516 | 36 | 113 | 6.4 | 20.9 | 0.00 | 0.03 | 0.00 | 48 | 1013.3 |
| 20260904190516 | 35 | 135 | 9.7 | 19.3 | 0.00 | 0.03 | 0.00 | 47 | 1013.4 |
| 20260904185516 | 35 | 113 | 14.5 | 22.5 | 0.00 | 0.03 | 0.00 | 49 | 1013.6 |
| 20260904184516 | 34 | 135 | 12.9 | 24.1 | 0.00 | 0.03 | 0.00 | 50 | 1013.7 |
| 20260904183516 | 34 | 135 | 14.5 | 22.5 | 0.00 | 0.03 | 0.00 | 49 | 1013.8 |
| 20260904182516 | 35 | 113 | 12.9 | 22.5 | 0.00 | 0.03 | 0.00 | 48 | 1014.0 |
| 20260904181516 | 35 | 158 | 3.2 | 14.5 | 0.00 | 0.03 | 0.00 | 49 | 1014.0 |
| 20260904180516 | 35 | 135 | 9.7 | 22.5 | 0.00 | 0.03 | 0.00 | 48 | 1014.2 |
| 20260904175536 | 35 | 135 | 1.6 | 8.0 | 0.00 | 0.03 | 0.00 | 49 | 1014.3 |
| 20260904174536 | 35 | 158 | 9.7 | 20.9 | 0.00 | 0.03 | 0.00 | 48 | 1014.4 |
| 20260904173516 | 35 | 135 | 8.0 | 19.3 | 0.00 | 0.03 | 0.00 | 49 | 1014.6 |
| 20260904172516 | 34 | 180 | 3.2 | 14.5 | 0.00 | 0.03 | 0.00 | 52 | 1014.6 |
| 20260904171516 | 34 | 158 | 6.4 | 27.4 | 0.00 | 0.03 | 0.00 | 55 | 1014.8 |
| 20260904170536 | 33 | 158 | 3.2 | 17.7 | 0.00 | 0.03 | 0.00 | 56 | 1015.0 |
| 20260904165556 | 33 | 180 | 1.6 | 16.1 | 0.00 | 0.03 | 0.00 | 56 | 1014.8 |
| 20260904164516 | 32 | 203 | 1.6 | 9.7 | 0.00 | 0.03 | 0.00 | 56 | 1014.9 |
| 20260904163536 | 32 | 158 | 4.8 | 16.1 | 0.00 | 0.03 | 0.00 | 61 | 1015.0 |
| 20260904162536 | 32 | 158 | 1.6 | 9.7 | 0.00 | 0.03 | 0.00 | 63 | 1015.0 |
| 20260904161516 | 31 | 158 | 4.8 | 19.3 | 0.00 | 0.03 | 0.00 | 62 | 1015.1 |
| 20260904160516 | 31 | 158 | 4.8 | 14.5 | 0.00 | 0.03 | 0.00 | 67 | 1014.9 |
| 20260904155516 | 31 | 158 | 1.6 | 16.1 | 0.00 | 0.03 | 0.00 | 67 | 1014.9 |
| 20260904154556 | 30 | 158 | 3.2 | 16.1 | 0.00 | 0.03 | 0.00 | 70 | 1014.8 |
| 20260904153516 | 30 | 180 | 1.6 | 14.5 | 0.00 | 0.03 | 0.00 | 72 | 1014.9 |
| 20260904152516 | 29 | 158 | 3.2 | 16.1 | 0.00 | 0.03 | 0.00 | 76 | 1014.7 |
| 20260904151516 | 28 | 158 | 4.8 | 25.7 | 0.00 | 0.03 | 0.00 | 78 | 1014.7 |
| 20260904150536 | 27 | 158 | 1.6 | 16.1 | 0.00 | 0.03 | 0.00 | 86 | 1014.6 |
| 20260904145536 | 27 | 158 | 6.4 | 16.1 | 0.00 | 0.03 | 0.00 | 90 | 1014.7 |
| 20260904144516 | 26 | 135 | 6.4 | 12.9 | 0.00 | 0.03 | 0.00 | 91 | 1014.7 |